RH
8 7 7 6 6 5 5 6 6 7 7 7 7 7 8 8 8 7 7 6 6 6 7 8 9 10 11 11 12 12 12 11 13 13 11 10 9 9 8 8 7 5 5 6 7 7 6 6 7 6 6 7 7 8 9 10 12 16 19 18 20 21 20 21 21 23 21 21 24 26 28 30 31 32 31 32 32 32 33 33 33 34 35 35 35 35 34 35
7 6 6 6 6 6 6 7 7 7 7 7 8 8 8 8 8 7 7 7 7 8 9 9 10 11 12 13 14 14 14 13 14 14 12 12 10 8 8 8 7 5 4 6 8 8 6 6 6 7 8 8 9 10 11 12 13 17 19 18 20 20 18 20 20 21 20 20 22 24 26 28 29 30 30 32 32 32 34 34 35 36 35 35 35 35 35 35
7 7 7 6 6 7 7 7 7 7 8 8 8 8 7 7 7 8 9 9 10 10 11 12 12 12 12 13 14 14 15 15 16 15 14 14 12 10 8 8 7 6 5 6 8 9 8 8 8 9 9 10 11 12 12 13 14 15 18 18 18 17 17 19 19 19 21 22 24 26 27 28 28 29 30 32 32 33 35 36 36 36 35 35 36 35 36 37
7 7 7 6 6 7 7 7 7 8 8 8 8 7 7 8 9 10 11 12 12 12 13 14 14 13 13 13 13 14 14 16 17 17 17 17 15 13 11 10 9 7 6 8 9 9 9 9 10 10 11 12 13 14 14 15 15 15 17 17 16 17 18 19 19 20 22 24 26 27 28 29 29 29 30 31 33 35 36 35 35 35 34 35 36 37 37 37
7 7 7 6 7 7 7 8 8 9 9 9 8 8 9 10 11 12 13 13 13 13 14 16 16 15 15 14 15 16 16 18 19 18 18 18 18 17 14 14 12 10 9 10 10 11 11 12 12 12 13 14 14 15 16 16 17 16 16 16 17 18 19 19 20 22 23 25 26 28 29 30 30 31 32 33 36 37 36 34 34 34 36 36 37 37 36 34
8 8 8 8 8 8 8 9 9 10 10 11 11 12 12 13 13 14 14 14 15 15 16 17 18 19 18 18 18 19 20 21 21 20 20 20 20 19 18 17 15 13 12 12 12 13 13 14 15 15 16 16 16 16 17 17 17 19 18 18 19 20 21 21 23 24 25 27 28 29 30 30 30 32 34 36 37 36 34 33 33 35 37 38 38 36 33 33
9 9 9 9 8 9 9 10 11 11 12 13 14 14 14 14 14 15 15 16 17 18 19 19 20 21 21 22 21 21 21 22 22 22 22 21 22 21 20 20 18 16 16 16 15 15 15 16 16 17 17 18 18 17 18 18 18 20 20 20 20 22 22 24 25 26 27 28 29 29 30 30 31 32 34 35 34 33 32 33 35 37 38 38 36 34 34 34
9 9 9 9 10 10 11 12 13 13 14 14 15 15 15 15 15 16 17 18 19 20 21 22 22 22 23 25 25 22 23 23 23 22 23 22 22 22 22 22 21 19 20 19 18 16 16 16 16 17 18 19 18 19 19 20 20 21 21 21 22 23 24 26 27 28 28 28 28 29 29 30 30 33 34 34 33 33 33 36 38 39 38 36 34 33 35 32
11 12 12 13 13 14 14 14 15 15 15 15 16 16 17 18 18 20 20 21 23 24 24 25 25 25 25 27 27 25 25 25 24 24 23 23 22 22 22 22 22 19 19 20 18 17 16 17 17 18 20 20 20 21 21 23 24 22 22 22 23 25 25 26 27 27 28 28 28 29 29 30 31 33 34 33 33 34 36 38 39 38 36 34 33 33 33 28
15 15 16 16 16 15 16 16 16 17 18 19 20 21 21 23 23 24 24 25 25 26 26 26 25 25 25 25 25 24 25 24 24 24 23 22 22 22 21 21 20 18 18 18 17 17 18 18 19 19 21 22 23 23 22 23 24 22 23 24 24 25 24 25 26 25 26 27 28 29 30 31 32 34 33 33 35 37 38 39 39 37 35 33 32 33 31 26
17 17 17 17 17 18 19 20 21 22 23 24 24 25 25 26 26 26 26 26 26 26 26 25 24 23 23 23 22 22 22 22 22 22 21 22 21 21 20 19 19 18 17 16 17 17 18 20 20 20 22 22 23 23 22 23 22 23 24 24 24 24 23 24 25 25 26 27 27 29 30 32 33 35 34 34 38 39 39 39 38 36 35 33 33 33 29 28
17 18 18 19 21 22 24 25 26 26 27 27 27 27 27 26 26 26 26 25 25 24 24 23 23 22 22 21 20 21 21 21 20 20 20 20 20 19 19 18 17 17 16 16 17 18 20 21 20 22 22 21 23 24 23 23 23 23 24 25 25 25 24 24 24 25 25 26 26 28 33 35 34 35 34 36 39 39 39 39 37 36 35 35 34 32 29 32
20 21 23 24 25 27 28 28 28 28 28 28 27 27 26 25 25 24 24 23 23 22 22 22 21 21 21 19 19 21 20 20 19 19 19 19 19 18 17 17 16 17 16 17 17 19 21 20 19 21 21 21 23 23 22 23 23 24 25 25 27 29 27 24 24 25 25 26 25 28 37 38 34 33 35 38 39 39 38 38 37 36 35 36 36 34 33 38
25 25 26 27 28 28 28 28 28 28 27 27 26 25 25 24 23 23 22 22 21 21 21 21 21 21 19 18 19 20 19 18 18 17 18 18 18 18 18 17 17 17 17 18 19 20 20 19 18 19 20 21 22 23 22 23 25 27 28 27 29 33 30 24 24 25 26 27 26 28 38 40 34 34 36 38 40 40 38 38 37 37 37 37 40 40 39 41
27 28 28 28 28 28 27 27 27 26 26 25 24 23 23 22 21 21 21 21 20 20 20 20 20 19 17 17 18 18 18 18 17 16 17 18 18 19 18 18 18 18 18 18 19 19 19 18 18 19 20 22 23 25 25 26 28 29 32 31 29 32 30 25 24 25 27 27 26 31 38 39 35 35 37 39 40 40 39 38 39 40 40 41 42 42 42 42
29 29 29 28 27 27 26 25 25 24 24 23 23 22 22 21 21 20 20 20 19 19 19 18 18 17 16 16 17 17 17 17 16 17 17 18 19 18 18 18 18 18 18 19 18 18 19 19 20 20 22 24 25 27 27 28 29 29 31 30 27 29 31 29 27 26 27 28 28 31 36 38 35 36 38 39 41 41 39 40 41 42 44 45 44 42 43 43
29 28 28 27 26 25 24 24 23 23 23 22 22 21 21 21 20 20 19 19 18 18 18 17 16 16 16 17 17 17 17 17 17 17 17 18 18 18 18 18 18 19 19 19 18 19 19 20 21 21 23 25 27 29 29 30 29 27 27 27 26 28 32 33 31 28 29 31 30 30 33 36 35 36 38 39 42 42 41 43 44 44 45 47 45 43 43 43
26 26 26 26 25 24 23 23 22 22 22 22 21 21 21 20 19 19 18 17 17 17 18 17 17 18 19 18 18 18 18 18 18 17 17 18 18 18 19 18 18 18 18 19 19 19 20 20 21 22 24 25 27 30 31 30 30 29 28 28 27 28 30 32 32 31 31 32 31 30 32 34 34 36 38 40 42 42 43 46 46 46 47 48 47 44 43 43
24 25 25 24 23 23 22 22 22 21 21 21 21 20 20 19 18 17 17 17 17 18 20 19 18 20 21 19 18 18 18 18 18 18 18 18 18 18 18 17 18 18 18 20 20 20 21 21 22 25 27 26 26 28 29 28 28 29 29 28 28 29 30 30 31 31 31 33 34 31 33 34 34 36 38 40 43 44 46 48 48 48 48 49 48 46 44 44
23 23 23 23 22 22 21 21 21 20 20 19 19 20 20 20 18 17 17 16 18 19 20 20 19 19 20 19 19 18 18 18 18 18 18 18 18 18 17 17 17 18 19 20 20 20 21 22 25 26 27 26 25 27 27 26 26 26 27 29 29 30 31 30 30 30 30 34 34 32 34 34 35 36 38 41 43 45 48 49 49 49 49 49 49 46 45 46
22 22 22 22 21 21 20 20 19 18 18 17 18 18 18 20 20 19 18 17 18 19 19 19 19 20 19 19 19 19 19 18 17 17 18 18 18 18 18 18 19 20 19 19 20 20 19 22 25 24 24 24 25 27 27 27 27 26 27 29 30 30 30 29 31 31 30 34 35 32 34 35 35 36 38 41 44 46 49 50 49 49 48 50 50 46 46 48
22 21 20 20 19 19 18 18 18 17 17 16 16 16 16 18 18 19 18 18 19 18 18 19 19 19 19 19 19 18 19 19 18 18 17 18 18 20 19 19 20 21 20 20 19 19 20 23 24 22 21 22 24 26 27 28 27 27 27 29 32 32 30 30 32 32 31 35 36 34 35 35 35 36 38 42 44 47 51 52 51 50 50 51 51 46 46 49
20 19 18 18 17 17 17 17 17 16 16 15 15 15 15 16 17 19 18 19 20 19 18 19 18 19 19 19 19 19 19 19 19 19 18 18 18 19 20 19 20 20 21 21 20 19 21 23 22 20 22 23 24 24 27 28 26 28 28 29 32 31 30 32 33 33 32 35 36 36 37 37 36 37 40 43 45 49 53 53 53 53 53 54 53 48 48 49
19 18 17 16 16 17 16 16 15 15 15 14 14 14 15 15 16 18 18 18 20 19 18 18 18 19 19 19 19 20 19 19 19 19 18 19 18 19 19 19 21 21 21 21 20 20 22 22 19 20 22 23 23 24 26 28 26 28 30 30 30 30 30 31 32 32 32 35 38 39 39 39 40 41 44 46 47 51 54 54 56 57 56 56 54 50 50 51
18 17 16 15 15 16 16 15 15 15 15 14 14 14 14 15 16 16 17 18 20 18 18 19 18 18 19 20 19 19 20 19 19 19 18 19 19 20 20 20 21 22 23 21 20 21 22 20 19 22 22 21 22 23 24 27 27 28 31 30 29 29 30 31 31 32 34 38 39 40 42 42 41 43 45 48 50 54 56 56 59 60 57 56 54 52 52 53
17 16 16 16 16 16 16 16 15 15 15 15 15 16 16 16 17 17 18 20 19 18 19 18 17 19 19 20 20 19 20 20 19 19 18 19 19 20 22 20 20 23 23 21 21 22 22 20 21 23 23 21 22 22 23 25 28 28 29 29 29 29 30 32 32 33 36 39 38 42 46 45 43 44 46 49 53 56 57 57 60 60 57 56 56 55 55 55
17 17 16 16 16 16 15 15 15 14 15 15 16 16 16 17 18 18 20 22 19 18 19 18 18 19 18 19 19 19 21 21 19 18 17 19 19 20 22 22 21 22 22 21 21 22 23 23 23 24 22 20 21 22 22 24 27 28 27 28 29 29 30 32 33 35 37 39 41 44 45 45 45 46 47 51 54 55 56 59 60 60 58 57 57 57 57 56
18 18 17 16 15 15 14 14 14 14 14 14 14 15 15 16 16 17 20 21 18 17 19 18 17 18 18 18 18 18 20 20 20 20 18 19 19 19 22 22 22 22 21 21 21 22 23 24 25 25 22 21 22 22 22 25 27 27 27 27 28 29 32 33 34 37 39 42 45 45 43 44 46 46 49 53 54 55 57 61 62 61 60 59 58 58 58 58
18 17 16 15 15 14 14 14 14 14 15 15 15 15 15 15 15 17 19 18 17 18 18 18 17 16 18 18 17 18 19 19 20 20 19 19 18 18 20 20 21 21 20 20 22 23 23 23 24 24 22 22 24 23 22 25 27 26 27 28 29 31 34 36 38 39 41 45 47 44 42 47 49 48 50 53 53 55 59 62 63 63 61 60 58 58 59 60
17 16 15 15 15 15 15 14 14 15 15 15 15 14 14 16 17 19 20 18 18 18 17 18 17 17 19 19 17 18 19 19 20 19 19 19 18 18 18 19 19 21 22 21 23 24 22 22 23 22 22 23 24 24 23 24 26 27 28 30 32 34 34 36 39 38 42 47 46 42 43 49 54 50 49 52 54 58 63 64 64 63 62 61 58 58 60 60
16 16 16 16 15 15 14 14 14 15 16 16 16 15 16 19 19 19 20 18 19 19 18 19 20 19 21 22 19 19 20 19 18 20 21 20 19 19 19 20 22 22 23 23 25 26 23 23 22 22 22 22 23 24 24 25 26 28 29 29 32 33 32 36 39 40 47 49 43 43 45 49 55 51 47 53 58 62 65 65 66 65 63 62 59 58 60 61
17 17 16 16 15 15 15 15 15 15 16 17 16 16 19 20 19 20 19 18 19 21 19 20 21 21 22 22 21 21 21 19 18 20 21 21 22 22 21 23 25 24 22 22 24 25 25 23 22 22 22 22 23 23 24 26 26 27 29 30 34 35 35 40 41 40 44 44 41 44 47 48 50 47 48 55 60 62 63 63 66 64 63 63 60 59 61 61
17 17 16 17 16 16 15 15 15 15 16 16 15 18 21 20 20 21 20 19 19 20 21 21 22 22 23 22 21 22 22 21 19 19 20 20 22 23 22 22 24 24 23 22 22 23 25 25 24 23 22 21 22 23 26 27 27 29 31 33 38 40 44 48 43 40 43 43 41 42 46 48 49 46 49 54 57 59 59 61 64 64 64 64 61 61 62 59
17 17 17 17 16 16 15 15 15 15 15 16 17 20 21 20 20 21 20 19 20 20 21 22 22 23 23 21 21 22 21 21 22 21 19 19 20 22 22 21 23 24 24 23 22 23 25 24 24 25 22 22 24 25 27 29 31 32 31 33 38 40 46 51 48 48 49 45 42 43 47 51 51 50 50 52 55 56 58 61 64 65 65 64 63 62 61 57
18 18 17 17 16 15 15 14 15 15 15 17 19 21 21 20 20 21 21 21 21 21 21 22 23 22 20 21 22 21 20 21 21 20 20 19 20 22 22 22 23 24 25 24 23 24 25 23 24 25 22 21 26 26 26 30 32 32 30 34 38 37 40 45 47 47 46 49 49 46 48 49 48 50 51 53 56 57 60 64 66 67 65 64 65 64 62 60
18 18 17 17 16 15 15 15 15 15 15 17 20 21 22 21 21 22 24 24 22 22 23 23 22 21 18 19 21 20 20 21 21 19 19 20 22 22 23 23 23 23 25 25 23 24 26 24 24 25 23 22 25 26 27 29 31 31 32 34 37 36 36 42 47 43 46 57 53 44 46 47 47 51 51 53 58 59 63 65 66 67 64 64 65 63 62 61
18 19 18 18 17 16 16 15 16 17 15 17 21 22 21 22 23 23 24 24 22 23 23 20 19 20 18 18 19 19 20 20 19 18 18 19 21 21 23 23 22 22 23 24 24 23 26 27 24 24 26 25 24 25 26 28 30 33 33 33 35 36 36 41 48 46 48 56 49 43 50 52 52 56 53 53 59 61 64 65 65 65 65 66 66 65 64 62
19 19 19 18 18 17 16 16 17 18 16 18 23 23 22 23 24 23 23 23 23 24 22 18 19 20 18 18 18 19 20 19 17 17 17 19 19 19 22 22 21 21 22 23 24 23 24 28 25 22 26 28 25 26 28 28 30 32 32 31 34 40 43 43 48 52 56 58 50 45 50 52 52 55 54 55 60 61 64 66 65 66 68 69 68 68 68 62
18 19 19 19 19 18 17 18 18 17 18 22 25 23 23 25 24 22 23 23 24 23 20 19 20 20 19 19 19 19 19 17 16 16 16 17 19 20 20 20 21 21 21 22 24 22 22 25 25 23 26 28 26 27 30 30 30 31 31 32 34 40 44 44 46 51 56 60 57 52 52 51 50 51 52 55 58 61 65 67 66 69 71 71 70 72 71 61
18 19 20 19 20 19 18 18 17 19 22 24 24 23 24 25 24 21 22 23 24 22 19 19 20 19 19 19 19 19 18 15 15 16 15 16 20 21 20 21 22 22 21 21 22 22 21 22 23 24 26 28 28 27 28 28 30 31 32 34 35 37 41 44 46 47 52 58 61 61 58 49 45 49 52 53 57 62 65 66 68 71 72 71 72 74 71 61
17 20 20 19 20 20 19 19 19 22 25 24 24 26 25 24 24 22 20 21 22 20 19 20 21 20 19 19 19 19 17 15 15 16 16 16 18 19 21 22 23 23 22 21 21 22 23 22 22 23 25 26 27 26 27 28 29 30 31 33 35 38 42 48 50 48 50 54 56 61 62 51 43 48 51 53 59 62 64 66 70 72 73 72 72 73 71 62
16 20 20 18 20 20 20 23 24 24 25 25 26 27 25 24 24 22 21 21 21 19 19 21 22 22 22 21 19 19 17 16 16 16 16 16 18 20 21 20 21 23 21 19 21 23 23 22 23 23 23 25 25 25 26 28 29 30 31 32 35 38 41 47 50 48 49 52 50 56 63 53 44 47 51 53 59 63 65 69 73 75 75 74 72 73 72 63
15 17 18 18 19 19 21 26 26 26 27 27 27 26 25 24 23 22 22 21 21 20 20 22 24 23 23 22 20 19 18 17 17 17 16 16 19 22 21 18 20 22 21 19 21 24 24 22 23 23 22 23 24 24 26 28 29 30 31 31 35 38 40 43 46 47 51 52 48 54 61 52 43 47 51 54 59 63 66 70 73 74 73 73 72 73 72 64
14 15 16 17 18 19 24 27 27 27 28 28 27 26 25 24 23 23 23 22 21 20 21 22 24 23 22 22 20 20 19 17 17 18 16 16 19 20 18 18 20 21 22 22 22 24 24 21 22 24 22 22 24 24 26 28 28 29 30 32 36 38 41 43 44 46 51 51 48 56 58 46 39 43 48 52 56 59 62 66 69 71 72 72 73 74 73 65
12 13 14 15 16 18 22 24 24 26 28 27 26 25 24 23 22 21 22 22 20 20 21 22 22 23 22 22 21 20 19 18 17 18 18 16 19 22 19 18 19 20 21 22 22 24 24 21 20 23 23 25 26 25 24 25 26 28 30 34 37 39 41 42 44 49 52 49 48 53 52 41 36 41 45 48 51 54 57 61 66 69 72 73 74 77 75 66
11 14 15 14 14 15 18 19 19 23 25 24 22 21 22 23 22 19 20 21 19 20 21 21 20 21 21 22 21 19 20 20 18 18 19 17 19 23 21 18 19 20 20 20 21 23 23 21 21 21 21 22 23 22 21 23 25 28 31 35 38 40 40 41 44 48 48 47 46 46 46 44 41 43 46 47 51 55 57 59 65 69 72 74 77 80 77 66
11 15 16 16 15 15 16 17 17 18 19 19 19 19 20 22 22 19 19 20 19 20 22 20 20 21 20 20 20 17 19 22 19 17 18 18 18 20 20 19 19 19 19 20 21 23 22 21 23 23 22 21 20 20 20 22 23 25 29 34 39 42 42 41 44 43 43 46 45 40 44 48 44 44 50 51 52 55 56 59 66 70 74 77 79 81 77 66
11 12 11 13 16 17 17 16 16 16 15 16 18 18 19 19 19 18 18 19 18 19 21 20 20 21 20 19 19 17 18 20 19 17 18 19 20 19 19 21 22 20 20 21 21 21 21 21 22 22 21 21 21 20 20 22 22 24 28 32 37 41 42 41 41 41 42 47 44 39 44 48 44 45 51 52 53 56 58 61 66 71 75 78 80 82 76 66
10 10 9 9 12 14 14 14 15 15 14 15 17 18 18 18 18 18 18 18 19 18 18 18 19 20 17 17 18 16 16 16 16 17 18 18 19 19 18 21 23 22 21 21 21 20 20 22 23 24 21 20 21 21 22 23 22 23 28 31 34 38 41 41 41 41 43 44 42 42 46 45 43 47 51 52 54 57 58 61 65 70 74 76 81 84 76 66
9 9 8 8 9 9 10 10 13 16 14 13 15 17 17 17 18 17 16 17 19 19 17 17 19 18 16 17 18 17 17 17 14 15 17 17 18 19 17 18 21 22 20 20 21 20 19 21 22 22 21 20 19 21 22 24 23 23 25 29 33 36 39 41 41 42 44 45 44 46 48 45 43 46 50 52 54 55 56 59 62 66 71 75 82 85 77 67
8 8 8 9 9 9 9 9 10 14 15 13 15 16 16 16 17 16 15 14 16 18 18 17 18 19 17 17 19 18 18 17 16 16 16 15 16 17 17 16 17 20 21 21 22 21 20 21 21 21 23 21 18 21 23 22 24 25 26 28 31 34 37 39 41 43 44 43 44 46 47 44 42 44 47 50 53 54 54 55 57 62 69 75 81 84 78 70
7 7 7 9 10 9 10 9 9 11 13 14 15 16 17 16 14 15 15 13 12 14 15 15 16 17 17 18 19 19 15 14 15 15 15 15 15 15 16 16 16 18 21 22 23 22 22 23 21 22 25 22 18 21 22 22 27 28 26 26 27 30 34 37 38 40 40 39 42 44 43 40 40 43 46 50 53 54 54 54 56 60 67 75 81 83 79 72